Location: ???????
(55.3754°N, 39.3545°E)
Time: 20:36:13
(UTC+00:00)

Cosmos 2074 Rocket - Pass Details

Date: 14 April 2026
Orbit: 967 x 984 km, 82.9° (Epoch: 11 May)

Event Time Altitude Azimuth Distance (km) Brightness Sun altitude
Rises 17:03:26 0° 195° (SSW) 3,658 6.9 -5.8°
Reaches altitude 10° 17:05:56 10° 197° (SSW) 2,717 6.2 -6.1°
Maximum altitude 17:12:09 76° 283° (WNW) 1,013 4.3 -6.9°
Drops below altitude 10° 17:18:28 10° 10° (N) 2,746 6.6 -7.7°
Sets 17:21:01 0° 12° (NNE) 3,700 7.3 -8.0°
